[Werte auf volle kW gerundet];;
01.01.2023;00:15:00;3638
01.01.2023;00:30:00;3632
01.01.2023;00:45:00;3602
01.01.2023;01:00:00;3557
01.01.2023;01:15:00;3483
01.01.2023;01:30:00;3445
01.01.2023;01:45:00;3426
01.01.2023;02:00:00;3305
01.01.2023;02:15:00;3268
01.01.2023;02:30:00;3149
01.01.2023;02:45:00;3116
01.01.2023;03:00:00;3082
01.01.2023;03:15:00;2991
01.01.2023;03:30:00;2967
01.01.2023;03:45:00;2964
01.01.2023;04:00:00;2995
01.01.2023;04:15:00;2952
01.01.2023;04:30:00;2916
01.01.2023;04:45:00;2949
01.01.2023;05:00:00;2921
01.01.2023;05:15:00;3046
01.01.2023;05:30:00;2972
01.01.2023;05:45:00;3043
01.01.2023;06:00:00;2982
01.01.2023;06:15:00;3022
01.01.2023;06:30:00;2957
01.01.2023;06:45:00;2953
01.01.2023;07:00:00;3070
01.01.2023;07:15:00;3200
01.01.2023;07:30:00;3210
01.01.2023;07:45:00;3252
01.01.2023;08:00:00;3376
01.01.2023;08:15:00;3438
01.01.2023;08:30:00;3483
01.01.2023;08:45:00;3640
01.01.2023;09:00:00;3835
01.01.2023;09:15:00;4023
01.01.2023;09:30:00;4194
01.01.2023;09:45:00;4411
01.01.2023;10:00:00;4330
01.01.2023;10:15:00;4387
01.01.2023;10:30:00;4508
01.01.2023;10:45:00;4603
01.01.2023;11:00:00;4839
01.01.2023;11:15:00;5052
01.01.2023;11:30:00;5310
01.01.2023;11:45:00;5449
01.01.2023;12:00:00;5766
01.01.2023;12:15:00;5362
01.01.2023;12:30:00;5193
01.01.2023;12:45:00;5080
01.01.2023;13:00:00;5030
01.01.2023;13:15:00;4855
01.01.2023;13:30:00;4737
01.01.2023;13:45:00;4622
01.01.2023;14:00:00;4642
01.01.2023;14:15:00;4616
01.01.2023;14:30:00;4643
01.01.2023;14:45:00;4627
01.01.2023;15:00:00;4598
01.01.2023;15:15:00;4714
01.01.2023;15:30:00;4753
01.01.2023;15:45:00;4922
01.01.2023;16:00:00;4939
01.01.2023;16:15:00;4983
01.01.2023;16:30:00;5135
01.01.2023;16:45:00;5399
01.01.2023;17:00:00;5583
01.01.2023;17:15:00;5641
01.01.2023;17:30:00;5871
01.01.2023;17:45:00;6051
01.01.2023;18:00:00;6113
01.01.2023;18:15:00;6059
01.01.2023;18:30:00;6166
01.01.2023;18:45:00;6186
01.01.2023;19:00:00;6012
01.01.2023;19:15:00;5967
01.01.2023;19:30:00;5873
01.01.2023;19:45:00;5671
01.01.2023;20:00:00;5499
01.01.2023;20:15:00;5397
01.01.2023;20:30:00;5204
01.01.2023;20:45:00;5075
01.01.2023;21:00:00;5050
01.01.2023;21:15:00;4914
01.01.2023;21:30:00;4729
01.01.2023;21:45:00;4616
01.01.2023;22:00:00;4445
01.01.2023;22:15:00;4357
01.01.2023;22:30:00;4249
01.01.2023;22:45:00;4110
01.01.2023;23:00:00;3875
01.01.2023;23:15:00;3724
01.01.2023;23:30:00;3595
01.01.2023;23:45:00;3525
02.01.2023;00:00:00;3390
02.01.2023;00:15:00;3311
02.01.2023;00:30:00;3207
02.01.2023;00:45:00;3158
02.01.2023;01:00:00;3120
02.01.2023;01:15:00;3074
02.01.2023;01:30:00;2953
02.01.2023;01:45:00;2937
02.01.2023;02:00:00;2867
02.01.2023;02:15:00;2862
02.01.2023;02:30:00;2849
02.01.2023;02:45:00;2908
02.01.2023;03:00:00;2859
02.01.2023;03:15:00;2900
02.01.2023;03:30:00;2932
02.01.2023;03:45:00;2943
02.01.2023;04:00:00;2962
02.01.2023;04:15:00;3079
02.01.2023;04:30:00;3110
02.01.2023;04:45:00;3221
02.01.2023;05:00:00;3244
02.01.2023;05:15:00;3385
02.01.2023;05:30:00;3482
02.01.2023;05:45:00;3749
02.01.2023;06:00:00;3927
02.01.2023;06:15:00;4230
02.01.2023;06:30:00;4345
02.01.2023;06:45:00;4553
02.01.2023;07:00:00;4710
02.01.2023;07:15:00;4893
02.01.2023;07:30:00;5014
02.01.2023;07:45:00;5154
02.01.2023;08:00:00;5368
02.01.2023;08:15:00;5450
02.01.2023;08:30:00;5584
02.01.2023;08:45:00;5573
02.01.2023;09:00:00;5808
02.01.2023;09:15:00;5908
02.01.2023;09:30:00;5983
02.01.2023;09:45:00;5922
02.01.2023;10:00:00;5926
02.01.2023;10:15:00;5891
02.01.2023;10:30:00;5965
02.01.2023;10:45:00;5867
02.01.2023;11:00:00;5884
02.01.2023;11:15:00;5929
02.01.2023;11:30:00;6008
02.01.2023;11:45:00;6306
02.01.2023;12:00:00;6298
02.01.2023;12:15:00;6244
02.01.2023;12:30:00;6201
02.01.2023;12:45:00;5986
02.01.2023;13:00:00;6030
02.01.2023;13:15:00;5871
02.01.2023;13:30:00;5790
02.01.2023;13:45:00;5497
02.01.2023;14:00:00;5341
02.01.2023;14:15:00;5432
02.01.2023;14:30:00;5416
02.01.2023;14:45:00;5522
02.01.2023;15:00:00;5511
02.01.2023;15:15:00;5651
02.01.2023;15:30:00;5527
02.01.2023;15:45:00;5542
02.01.2023;16:00:00;5583
02.01.2023;16:15:00;5657
02.01.2023;16:30:00;5907
02.01.2023;16:45:00;6116
02.01.2023;17:00:00;6328
02.01.2023;17:15:00;6545
02.01.2023;17:30:00;6693
02.01.2023;17:45:00;6793
02.01.2023;18:00:00;6886
02.01.2023;18:15:00;6831
02.01.2023;18:30:00;6910
02.01.2023;18:45:00;6780
02.01.2023;19:00:00;6770
02.01.2023;19:15:00;6708
02.01.2023;19:30:00;6571
02.01.2023;19:45:00;6362
02.01.2023;20:00:00;6230
02.01.2023;20:15:00;5952
02.01.2023;20:30:00;5754
02.01.2023;20:45:00;5543
02.01.2023;21:00:00;5442
02.01.2023;21:15:00;5293
02.01.2023;21:30:00;5092
02.01.2023;21:45:00;4885
02.01.2023;22:00:00;4788
02.01.2023;22:15:00;4598
02.01.2023;22:30:00;4480
02.01.2023;22:45:00;4283
02.01.2023;23:00:00;4076
02.01.2023;23:15:00;3947
02.01.2023;23:30:00;3804
02.01.2023;23:45:00;3703
03.01.2023;00:00:00;3633
03.01.2023;00:15:00;3478
03.01.2023;00:30:00;3424
03.01.2023;00:45:00;3383
03.01.2023;01:00:00;3359
03.01.2023;01:15:00;3322
03.01.2023;01:30:00;3208
03.01.2023;01:45:00;3203
03.01.2023;02:00:00;3233
03.01.2023;02:15:00;3250
03.01.2023;02:30:00;3291
03.01.2023;02:45:00;3252
03.01.2023;03:00:00;3237
03.01.2023;03:15:00;3239
03.01.2023;03:30:00;3276
03.01.2023;03:45:00;3320
03.01.2023;04:00:00;3405
03.01.2023;04:15:00;3538
03.01.2023;04:30:00;3497
03.01.2023;04:45:00;3529
03.01.2023;05:00:00;3576
03.01.2023;05:15:00;3731
03.01.2023;05:30:00;3814
03.01.2023;05:45:00;4015
03.01.2023;06:00:00;4216
03.01.2023;06:15:00;4448
03.01.2023;06:30:00;4696
03.01.2023;06:45:00;4953
03.01.2023;07:00:00;5056
03.01.2023;07:15:00;5283
03.01.2023;07:30:00;5381
03.01.2023;07:45:00;5583
03.01.2023;08:00:00;5724
03.01.2023;08:15:00;5897
03.01.2023;08:30:00;5888
03.01.2023;08:45:00;5977
03.01.2023;09:00:00;6061
03.01.2023;09:15:00;6044
03.01.2023;09:30:00;6040
03.01.2023;09:45:00;5899
03.01.2023;10:00:00;5950
03.01.2023;10:15:00;5804
03.01.2023;10:30:00;5843
03.01.2023;10:45:00;5694
03.01.2023;11:00:00;5753
03.01.2023;11:15:00;5877
03.01.2023;11:30:00;5885
03.01.2023;11:45:00;5827
03.01.2023;12:00:00;5848
03.01.2023;12:15:00;5794
03.01.2023;12:30:00;5744
03.01.2023;12:45:00;5646
03.01.2023;13:00:00;5543
03.01.2023;13:15:00;5510
03.01.2023;13:30:00;5418
03.01.2023;13:45:00;5437
03.01.2023;14:00:00;5367
03.01.2023;14:15:00;5394
03.01.2023;14:30:00;5461
03.01.2023;14:45:00;5503
03.01.2023;15:00:00;5551
03.01.2023;15:15:00;5615
03.01.2023;15:30:00;5628
03.01.2023;15:45:00;5659
03.01.2023;16:00:00;5769
03.01.2023;16:15:00;5805
03.01.2023;16:30:00;5989
03.01.2023;16:45:00;6343
03.01.2023;17:00:00;6589
03.01.2023;17:15:00;6835
03.01.2023;17:30:00;6948
03.01.2023;17:45:00;7126
03.01.2023;18:00:00;7154
03.01.2023;18:15:00;7136
03.01.2023;18:30:00;7068
03.01.2023;18:45:00;7069
03.01.2023;19:00:00;6981
03.01.2023;19:15:00;6952
03.01.2023;19:30:00;6767
03.01.2023;19:45:00;6552
03.01.2023;20:00:00;6476
03.01.2023;20:15:00;6224
03.01.2023;20:30:00;5839
03.01.2023;20:45:00;5619
03.01.2023;21:00:00;5526
03.01.2023;21:15:00;5403
03.01.2023;21:30:00;5267
03.01.2023;21:45:00;5056
03.01.2023;22:00:00;4950
03.01.2023;22:15:00;4699
03.01.2023;22:30:00;4447
03.01.2023;22:45:00;4307
03.01.2023;23:00:00;4127
03.01.2023;23:15:00;4023
03.01.2023;23:30:00;3907
03.01.2023;23:45:00;3799
04.01.2023;00:00:00;3661
04.01.2023;00:15:00;3472
04.01.2023;00:30:00;3512
04.01.2023;00:45:00;3399
04.01.2023;01:00:00;3361
04.01.2023;01:15:00;3317
04.01.2023;01:30:00;3404
04.01.2023;01:45:00;3382
04.01.2023;02:00:00;3483
04.01.2023;02:15:00;3507
04.01.2023;02:30:00;3449
04.01.2023;02:45:00;3358
04.01.2023;03:00:00;3410
04.01.2023;03:15:00;3411
04.01.2023;03:30:00;3418
04.01.2023;03:45:00;3448
04.01.2023;04:00:00;3492
04.01.2023;04:15:00;3521
04.01.2023;04:30:00;3561
04.01.2023;04:45:00;3688
04.01.2023;05:00:00;3684
04.01.2023;05:15:00;3833
04.01.2023;05:30:00;4021
04.01.2023;05:45:00;4135
04.01.2023;06:00:00;4446
04.01.2023;06:15:00;4788
04.01.2023;06:30:00;4947
04.01.2023;06:45:00;5133
04.01.2023;07:00:00;5446
04.01.2023;07:15:00;5653
04.01.2023;07:30:00;5781
04.01.2023;07:45:00;6029
04.01.2023;08:00:00;6079
04.01.2023;08:15:00;6296
04.01.2023;08:30:00;6237
04.01.2023;08:45:00;6216
04.01.2023;09:00:00;6330
04.01.2023;09:15:00;6467
04.01.2023;09:30:00;6492
04.01.2023;09:45:00;6529
04.01.2023;10:00:00;6613
04.01.2023;10:15:00;6691
04.01.2023;10:30:00;6732
04.01.2023;10:45:00;6742
04.01.2023;11:00:00;6653
04.01.2023;11:15:00;6726
04.01.2023;11:30:00;6806
04.01.2023;11:45:00;6891
04.01.2023;12:00:00;6874
04.01.2023;12:15:00;6943
04.01.2023;12:30:00;6674
04.01.2023;12:45:00;6556
04.01.2023;13:00:00;6515
04.01.2023;13:15:00;6347
04.01.2023;13:30:00;6265
04.01.2023;13:45:00;6201
04.01.2023;14:00:00;6104
04.01.2023;14:15:00;6183
04.01.2023;14:30:00;6200
04.01.2023;14:45:00;6234
04.01.2023;15:00:00;6128
04.01.2023;15:15:00;6219
04.01.2023;15:30:00;6219
04.01.2023;15:45:00;6122
04.01.2023;16:00:00;6115
04.01.2023;16:15:00;6254
04.01.2023;16:30:00;6353
04.01.2023;16:45:00;6679
04.01.2023;17:00:00;6822
04.01.2023;17:15:00;7043
04.01.2023;17:30:00;7159
04.01.2023;17:45:00;7261
04.01.2023;18:00:00;7262
04.01.2023;18:15:00;7246
04.01.2023;18:30:00;7262
04.01.2023;18:45:00;7136
04.01.2023;19:00:00;7011
04.01.2023;19:15:00;6950
04.01.2023;19:30:00;6793
04.01.2023;19:45:00;6615
04.01.2023;20:00:00;6376
04.01.2023;20:15:00;6137
04.01.2023;20:30:00;5880
04.01.2023;20:45:00;5709
04.01.2023;21:00:00;5565
04.01.2023;21:15:00;5366
04.01.2023;21:30:00;5216
04.01.2023;21:45:00;5042
04.01.2023;22:00:00;4915
04.01.2023;22:15:00;4707
04.01.2023;22:30:00;4545
04.01.2023;22:45:00;4352
04.01.2023;23:00:00;4091
04.01.2023;23:15:00;3920
04.01.2023;23:30:00;3815
04.01.2023;23:45:00;3673
05.01.2023;00:00:00;3591
05.01.2023;00:15:00;3460
05.01.2023;00:30:00;3341
05.01.2023;00:45:00;3256
05.01.2023;01:00:00;3205
05.01.2023;01:15:00;3250
05.01.2023;01:30:00;3162
05.01.2023;01:45:00;3123
05.01.2023;02:00:00;3095
05.01.2023;02:15:00;3086
05.01.2023;02:30:00;3045
05.01.2023;02:45:00;3029
05.01.2023;03:00:00;3081
05.01.2023;03:15:00;3170
05.01.2023;03:30:00;3251
05.01.2023;03:45:00;3272
05.01.2023;04:00:00;3415
05.01.2023;04:15:00;3481
05.01.2023;04:30:00;3590
05.01.2023;04:45:00;3548
05.01.2023;05:00:00;3682
05.01.2023;05:15:00;3773
05.01.2023;05:30:00;4049
05.01.2023;05:45:00;4267
05.01.2023;06:00:00;4382
05.01.2023;06:15:00;4766
05.01.2023;06:30:00;4891
05.01.2023;06:45:00;5232
05.01.2023;07:00:00;5399
05.01.2023;07:15:00;5618
05.01.2023;07:30:00;5747
05.01.2023;07:45:00;5876
05.01.2023;08:00:00;6145
05.01.2023;08:15:00;6174
05.01.2023;08:30:00;6210
05.01.2023;08:45:00;6146
05.01.2023;09:00:00;6128
05.01.2023;09:15:00;6314
05.01.2023;09:30:00;6356
05.01.2023;09:45:00;6394
05.01.2023;10:00:00;6248
05.01.2023;10:15:00;6458
05.01.2023;10:30:00;6363
05.01.2023;10:45:00;6287
05.01.2023;11:00:00;6205
05.01.2023;11:15:00;6495
05.01.2023;11:30:00;6572
05.01.2023;11:45:00;6526
05.01.2023;12:00:00;6559
05.01.2023;12:15:00;6403
05.01.2023;12:30:00;6566
05.01.2023;12:45:00;6309
05.01.2023;13:00:00;6116
05.01.2023;13:15:00;6168
05.01.2023;13:30:00;6227
05.01.2023;13:45:00;6141
05.01.2023;14:00:00;5979
05.01.2023;14:15:00;5754
05.01.2023;14:30:00;5975
05.01.2023;14:45:00;6024
05.01.2023;15:00:00;5980
05.01.2023;15:15:00;6119
05.01.2023;15:30:00;6027
05.01.2023;15:45:00;6093
05.01.2023;16:00:00;6186
05.01.2023;16:15:00;6283
05.01.2023;16:30:00;6464
05.01.2023;16:45:00;6628
05.01.2023;17:00:00;6812
05.01.2023;17:15:00;7048
05.01.2023;17:30:00;7003
05.01.2023;17:45:00;7109
05.01.2023;18:00:00;7242
05.01.2023;18:15:00;7156
05.01.2023;18:30:00;7108
05.01.2023;18:45:00;7104
05.01.2023;19:00:00;6978
05.01.2023;19:15:00;6789
05.01.2023;19:30:00;6667
05.01.2023;19:45:00;6618
05.01.2023;20:00:00;6501
05.01.2023;20:15:00;6167
05.01.2023;20:30:00;5856
05.01.2023;20:45:00;5705
05.01.2023;21:00:00;5511
05.01.2023;21:15:00;5381
05.01.2023;21:30:00;5259
05.01.2023;21:45:00;5124
05.01.2023;22:00:00;4955
05.01.2023;22:15:00;4719
05.01.2023;22:30:00;4613
05.01.2023;22:45:00;4373
05.01.2023;23:00:00;4304
05.01.2023;23:15:00;4068
05.01.2023;23:30:00;3996
05.01.2023;23:45:00;3862
06.01.2023;00:00:00;3794
06.01.2023;00:15:00;3623
06.01.2023;00:30:00;3569
06.01.2023;00:45:00;3439
06.01.2023;01:00:00;3478
06.01.2023;01:15:00;3393
06.01.2023;01:30:00;3301
06.01.2023;01:45:00;3281
06.01.2023;02:00:00;3234
06.01.2023;02:15:00;3331
06.01.2023;02:30:00;3354
06.01.2023;02:45:00;3356
06.01.2023;03:00:00;3393
06.01.2023;03:15:00;3390
06.01.2023;03:30:00;3363
06.01.2023;03:45:00;3382
06.01.2023;04:00:00;3420
06.01.2023;04:15:00;3530
06.01.2023;04:30:00;3543
06.01.2023;04:45:00;3667
06.01.2023;05:00:00;3690
06.01.2023;05:15:00;3819
06.01.2023;05:30:00;3986
06.01.2023;05:45:00;4171
06.01.2023;06:00:00;4478
06.01.2023;06:15:00;4671
06.01.2023;06:30:00;4932
06.01.2023;06:45:00;5184
06.01.2023;07:00:00;5390
06.01.2023;07:15:00;5607
06.01.2023;07:30:00;5699
06.01.2023;07:45:00;5917
06.01.2023;08:00:00;6104
06.01.2023;08:15:00;6242
06.01.2023;08:30:00;6241
06.01.2023;08:45:00;6216
06.01.2023;09:00:00;6331
06.01.2023;09:15:00;6328
06.01.2023;09:30:00;6410
06.01.2023;09:45:00;6398
06.01.2023;10:00:00;6458
06.01.2023;10:15:00;6445
06.01.2023;10:30:00;6381
06.01.2023;10:45:00;6442
06.01.2023;11:00:00;6496
06.01.2023;11:15:00;6497
06.01.2023;11:30:00;6580
06.01.2023;11:45:00;6602
06.01.2023;12:00:00;6717
06.01.2023;12:15:00;6835
06.01.2023;12:30:00;6726
06.01.2023;12:45:00;6219
06.01.2023;13:00:00;5823
06.01.2023;13:15:00;5640
06.01.2023;13:30:00;5864
06.01.2023;13:45:00;5861
06.01.2023;14:00:00;5812
06.01.2023;14:15:00;6073
06.01.2023;14:30:00;6033
06.01.2023;14:45:00;6130
06.01.2023;15:00:00;6106
06.01.2023;15:15:00;6110
06.01.2023;15:30:00;6044
06.01.2023;15:45:00;5945
06.01.2023;16:00:00;5924
06.01.2023;16:15:00;6011
06.01.2023;16:30:00;6210
06.01.2023;16:45:00;6505
06.01.2023;17:00:00;6616
06.01.2023;17:15:00;6800
06.01.2023;17:30:00;6896
06.01.2023;17:45:00;7105
06.01.2023;18:00:00;7117
06.01.2023;18:15:00;7090
06.01.2023;18:30:00;6998
06.01.2023;18:45:00;7010
06.01.2023;19:00:00;6897
06.01.2023;19:15:00;6770
06.01.2023;19:30:00;6560
06.01.2023;19:45:00;6303
06.01.2023;20:00:00;6304
06.01.2023;20:15:00;6002
06.01.2023;20:30:00;5814
06.01.2023;20:45:00;5550
06.01.2023;21:00:00;5399
06.01.2023;21:15:00;5246
06.01.2023;21:30:00;5164
06.01.2023;21:45:00;5035
06.01.2023;22:00:00;4892
06.01.2023;22:15:00;4661
06.01.2023;22:30:00;4465
06.01.2023;22:45:00;4416
06.01.2023;23:00:00;4203
06.01.2023;23:15:00;4068
06.01.2023;23:30:00;3938
06.01.2023;23:45:00;3842
07.01.2023;00:00:00;3806
07.01.2023;00:15:00;3639
07.01.2023;00:30:00;3530
07.01.2023;00:45:00;3438
07.01.2023;01:00:00;3400
07.01.2023;01:15:00;3288
07.01.2023;01:30:00;3269
07.01.2023;01:45:00;3259
07.01.2023;02:00:00;3218
07.01.2023;02:15:00;3173
07.01.2023;02:30:00;3152
07.01.2023;02:45:00;3172
07.01.2023;03:00:00;3103
07.01.2023;03:15:00;3155
07.01.2023;03:30:00;3179
07.01.2023;03:45:00;3187
07.01.2023;04:00:00;3255
07.01.2023;04:15:00;3267
07.01.2023;04:30:00;3235
07.01.2023;04:45:00;3227
07.01.2023;05:00:00;3241
07.01.2023;05:15:00;3358
07.01.2023;05:30:00;3322
07.01.2023;05:45:00;3416
07.01.2023;06:00:00;3475
07.01.2023;06:15:00;3537
07.01.2023;06:30:00;3580
07.01.2023;06:45:00;3595
07.01.2023;07:00:00;3792
07.01.2023;07:15:00;3968
07.01.2023;07:30:00;4054
07.01.2023;07:45:00;4328
07.01.2023;08:00:00;4519
07.01.2023;08:15:00;4846
07.01.2023;08:30:00;5001
07.01.2023;08:45:00;5211
07.01.2023;09:00:00;5299
07.01.2023;09:15:00;5544
07.01.2023;09:30:00;5689
07.01.2023;09:45:00;5661
07.01.2023;10:00:00;5766
07.01.2023;10:15:00;5685
07.01.2023;10:30:00;5877
07.01.2023;10:45:00;6100
07.01.2023;11:00:00;6280
07.01.2023;11:15:00;6540
07.01.2023;11:30:00;6739
07.01.2023;11:45:00;6891
07.01.2023;12:00:00;6875
07.01.2023;12:15:00;6789
07.01.2023;12:30:00;6519
07.01.2023;12:45:00;6368
07.01.2023;13:00:00;6233
07.01.2023;13:15:00;6165
07.01.2023;13:30:00;6028
07.01.2023;13:45:00;5846
07.01.2023;14:00:00;5842
07.01.2023;14:15:00;5726
07.01.2023;14:30:00;5562
07.01.2023;14:45:00;5545
07.01.2023;15:00:00;5682
07.01.2023;15:15:00;5610
07.01.2023;15:30:00;5607
07.01.2023;15:45:00;5692
07.01.2023;16:00:00;5700
07.01.2023;16:15:00;5869
07.01.2023;16:30:00;5912
07.01.2023;16:45:00;6114
07.01.2023;17:00:00;6206
07.01.2023;17:15:00;6481
07.01.2023;17:30:00;6574
07.01.2023;17:45:00;6690
07.01.2023;18:00:00;6812
07.01.2023;18:15:00;6773
07.01.2023;18:30:00;6794
07.01.2023;18:45:00;6639
07.01.2023;19:00:00;6634
07.01.2023;19:15:00;6492
07.01.2023;19:30:00;6287
07.01.2023;19:45:00;6169
07.01.2023;20:00:00;6084
07.01.2023;20:15:00;5909
07.01.2023;20:30:00;5605
07.01.2023;20:45:00;5447
07.01.2023;21:00:00;5358
07.01.2023;21:15:00;5088
07.01.2023;21:30:00;5038
07.01.2023;21:45:00;4940
07.01.2023;22:00:00;4778
07.01.2023;22:15:00;4714
07.01.2023;22:30:00;4570
07.01.2023;22:45:00;4521
07.01.2023;23:00:00;4413
07.01.2023;23:15:00;4233
07.01.2023;23:30:00;4099
07.01.2023;23:45:00;4029
08.01.2023;00:00:00;3863
08.01.2023;00:15:00;3748
08.01.2023;00:30:00;3660
08.01.2023;00:45:00;3649
08.01.2023;01:00:00;3492
08.01.2023;01:15:00;3514
08.01.2023;01:30:00;3453
08.01.2023;01:45:00;3399
08.01.2023;02:00:00;3379
08.01.2023;02:15:00;3358
08.01.2023;02:30:00;3311
08.01.2023;02:45:00;3342
08.01.2023;03:00:00;3271
08.01.2023;03:15:00;3251
08.01.2023;03:30:00;3203
08.01.2023;03:45:00;3227
08.01.2023;04:00:00;3215
08.01.2023;04:15:00;3236
08.01.2023;04:30:00;3223
08.01.2023;04:45:00;3241
08.01.2023;05:00:00;3219
08.01.2023;05:15:00;3194
08.01.2023;05:30:00;3263
08.01.2023;05:45:00;3222
08.01.2023;06:00:00;3188
08.01.2023;06:15:00;3164
08.01.2023;06:30:00;3216
08.01.2023;06:45:00;3174
08.01.2023;07:00:00;3395
08.01.2023;07:15:00;3460
08.01.2023;07:30:00;3569
08.01.2023;07:45:00;3750
08.01.2023;08:00:00;4013
08.01.2023;08:15:00;4251
08.01.2023;08:30:00;4425
08.01.2023;08:45:00;4689
08.01.2023;09:00:00;4928
08.01.2023;09:15:00;5172
08.01.2023;09:30:00;5304
08.01.2023;09:45:00;5396
08.01.2023;10:00:00;5608
08.01.2023;10:15:00;5633
08.01.2023;10:30:00;5799
08.01.2023;10:45:00;6094
08.01.2023;11:00:00;6449
08.01.2023;11:15:00;6854
08.01.2023;11:30:00;7109
08.01.2023;11:45:00;7119
08.01.2023;12:00:00;6999
08.01.2023;12:15:00;6587
08.01.2023;12:30:00;6322
08.01.2023;12:45:00;6157
08.01.2023;13:00:00;5957
08.01.2023;13:15:00;5876
08.01.2023;13:30:00;5649
08.01.2023;13:45:00;5565
08.01.2023;14:00:00;5472
08.01.2023;14:15:00;5357
08.01.2023;14:30:00;5317
08.01.2023;14:45:00;5250
08.01.2023;15:00:00;5102
08.01.2023;15:15:00;4855
08.01.2023;15:30:00;5068
08.01.2023;15:45:00;5193
08.01.2023;16:00:00;5197
08.01.2023;16:15:00;5222
08.01.2023;16:30:00;5421
08.01.2023;16:45:00;5596
08.01.2023;17:00:00;5936
08.01.2023;17:15:00;6100
08.01.2023;17:30:00;6398
08.01.2023;17:45:00;6574
08.01.2023;18:00:00;6630
08.01.2023;18:15:00;6753
08.01.2023;18:30:00;6628
08.01.2023;18:45:00;6585
08.01.2023;19:00:00;6457
08.01.2023;19:15:00;6337
08.01.2023;19:30:00;6227
08.01.2023;19:45:00;6016
08.01.2023;20:00:00;5912
08.01.2023;20:15:00;5756
08.01.2023;20:30:00;5578
08.01.2023;20:45:00;5350
08.01.2023;21:00:00;5287
08.01.2023;21:15:00;5128
08.01.2023;21:30:00;4998
08.01.2023;21:45:00;4790
08.01.2023;22:00:00;4662
08.01.2023;22:15:00;4551
08.01.2023;22:30:00;4349
08.01.2023;22:45:00;4186
08.01.2023;23:00:00;4027
08.01.2023;23:15:00;3863
08.01.2023;23:30:00;3793
08.01.2023;23:45:00;3692
09.01.2023;00:00:00;3644
09.01.2023;00:15:00;3494
09.01.2023;00:30:00;3438
09.01.2023;00:45:00;3413
09.01.2023;01:00:00;3316
09.01.2023;01:15:00;3318
09.01.2023;01:30:00;3298
09.01.2023;01:45:00;3232
09.01.2023;02:00:00;3196
09.01.2023;02:15:00;3200
09.01.2023;02:30:00;3256
09.01.2023;02:45:00;3256
09.01.2023;03:00:00;3214
09.01.2023;03:15:00;3253
09.01.2023;03:30:00;3326
09.01.2023;03:45:00;3337
09.01.2023;04:00:00;3360
09.01.2023;04:15:00;3496
09.01.2023;04:30:00;3594
09.01.2023;04:45:00;3562
09.01.2023;05:00:00;3618
09.01.2023;05:15:00;3808
09.01.2023;05:30:00;3994
09.01.2023;05:45:00;4236
09.01.2023;06:00:00;4545
09.01.2023;06:15:00;4904
09.01.2023;06:30:00;5015
09.01.2023;06:45:00;5329
09.01.2023;07:00:00;5523
09.01.2023;07:15:00;5737
09.01.2023;07:30:00;5737
09.01.2023;07:45:00;5888
09.01.2023;08:00:00;6255
09.01.2023;08:15:00;6310
09.01.2023;08:30:00;6317
09.01.2023;08:45:00;6296
09.01.2023;09:00:00;6241
09.01.2023;09:15:00;6341
09.01.2023;09:30:00;6224
09.01.2023;09:45:00;6318
09.01.2023;10:00:00;6072
09.01.2023;10:15:00;6216
09.01.2023;10:30:00;6227
09.01.2023;10:45:00;6358
09.01.2023;11:00:00;6337
09.01.2023;11:15:00;6448
09.01.2023;11:30:00;6554
09.01.2023;11:45:00;6488
09.01.2023;12:00:00;6673
09.01.2023;12:15:00;6724
09.01.2023;12:30:00;5847
09.01.2023;12:45:00;5791
09.01.2023;13:00:00;6119
09.01.2023;13:15:00;6292
09.01.2023;13:30:00;6224
09.01.2023;13:45:00;6349
09.01.2023;14:00:00;6108
09.01.2023;14:15:00;6078
09.01.2023;14:30:00;6013
09.01.2023;14:45:00;6057
09.01.2023;15:00:00;6109
09.01.2023;15:15:00;6138
09.01.2023;15:30:00;6165
09.01.2023;15:45:00;6097
09.01.2023;16:00:00;5985
09.01.2023;16:15:00;6104
09.01.2023;16:30:00;6260
09.01.2023;16:45:00;6371
09.01.2023;17:00:00;6616
09.01.2023;17:15:00;6838
09.01.2023;17:30:00;7039
09.01.2023;17:45:00;7196
09.01.2023;18:00:00;7228
09.01.2023;18:15:00;7196
09.01.2023;18:30:00;7047
09.01.2023;18:45:00;7093
09.01.2023;19:00:00;7064
09.01.2023;19:15:00;7009
09.01.2023;19:30:00;6791
09.01.2023;19:45:00;6701
09.01.2023;20:00:00;6463
09.01.2023;20:15:00;6309
09.01.2023;20:30:00;5953
09.01.2023;20:45:00;5827
09.01.2023;21:00:00;5707
09.01.2023;21:15:00;5442
09.01.2023;21:30:00;5378
09.01.2023;21:45:00;5108
09.01.2023;22:00:00;4956
09.01.2023;22:15:00;4757
09.01.2023;22:30:00;4621
09.01.2023;22:45:00;4479
09.01.2023;23:00:00;4391
09.01.2023;23:15:00;4052
09.01.2023;23:30:00;3883
09.01.2023;23:45:00;3807
10.01.2023;00:00:00;3666
10.01.2023;00:15:00;3653
10.01.2023;00:30:00;3592
10.01.2023;00:45:00;3490
10.01.2023;01:00:00;3464
10.01.2023;01:15:00;3420
10.01.2023;01:30:00;3358
10.01.2023;01:45:00;3347
10.01.2023;02:00:00;3411
10.01.2023;02:15:00;3588
10.01.2023;02:30:00;3608
10.01.2023;02:45:00;3652
10.01.2023;03:00:00;3655
10.01.2023;03:15:00;3567
10.01.2023;03:30:00;3619
10.01.2023;03:45:00;3531
10.01.2023;04:00:00;3566
10.01.2023;04:15:00;3737
10.01.2023;04:30:00;3726
10.01.2023;04:45:00;3778
10.01.2023;05:00:00;3853
10.01.2023;05:15:00;4098
10.01.2023;05:30:00;4178
10.01.2023;05:45:00;4411
10.01.2023;06:00:00;4610
10.01.2023;06:15:00;4962
10.01.2023;06:30:00;5081
10.01.2023;06:45:00;5360
10.01.2023;07:00:00;5571
10.01.2023;07:15:00;5790
10.01.2023;07:30:00;5976
10.01.2023;07:45:00;6062
10.01.2023;08:00:00;6284
10.01.2023;08:15:00;6398
10.01.2023;08:30:00;6382
10.01.2023;08:45:00;6351
10.01.2023;09:00:00;6428
10.01.2023;09:15:00;6404
10.01.2023;09:30:00;6536
10.01.2023;09:45:00;6375
10.01.2023;10:00:00;6403
10.01.2023;10:15:00;6376
10.01.2023;10:30:00;6146
10.01.2023;10:45:00;6350
10.01.2023;11:00:00;6471
10.01.2023;11:15:00;6441
10.01.2023;11:30:00;6555
10.01.2023;11:45:00;6393
10.01.2023;12:00:00;6681
10.01.2023;12:15:00;6752
10.01.2023;12:30:00;6606
10.01.2023;12:45:00;6495
10.01.2023;13:00:00;6354
10.01.2023;13:15:00;6409
10.01.2023;13:30:00;6277
10.01.2023;13:45:00;6195
10.01.2023;14:00:00;6197
10.01.2023;14:15:00;6169